[[{"header":{"parameterUnit":"m.s-1","parameterCategory":1,"la1":30.2991,"la2":30.254,"lo1":-89.0895,"lo2":-89.0444,"dy":0.0017,"dx":0.0017,"nx":28,"ny":28,"refTime":"2024-12-19T03:00:00:Z","depth":0,"parameterNumber":2,"parameterNumberName":"U-component_of_WINDS"},"data":[0,0,0,0,0,0,0,0,0,0,0,0,0,0,0,0,0,0,0,0,0,0,0,0,0,0,0,0,0,0,0,0,0,0,0,0,0,0,0,0,0,0,0,0,0,0,0,0,0,0,0,0,0,0,0,0,0,0,-0.8696,-0.8696,0,-0.8743,-0.8743,-0.8744,-0.8751,-0.875,-0.875,-0.8749,-0.8798,-0.88,-0.8802,0,0,0,0,0,0,0,0,0,0,0,0,0,-0.8613,-0.8614,-0.8696,-0.8696,-0.8697,-0.8743,-0.8743,-0.8744,-0.8751,-0.875,-0.875,-0.8749,-0.8798,-0.88,-0.8802,0,0,0,0,0,0,0,0,0,0,0,0,0,-0.8653,-0.8615,-0.8696,-0.8706,-0.8707,-0.8742,-0.8743,-0.8744,-0.8751,-0.875,-0.8749,-0.8749,-0.8797,-0.88,-0.8802,-0.8831,0,0,-0.881,-0.8811,0,0,0,0,0,0,0,0,-0.8651,-0.8656,-0.8704,-0.8705,-0.8707,-0.874,-0.8732,-0.8773,-0.8751,-0.8734,-0.8749,-0.8748,-0.878,-0.8784,-0.8794,-0.8833,-0.8835,-0.881,-0.8812,-0.8813,-0.8814,0,0,0,0,0,0,0,-0.8648,-0.8654,-0.8714,-0.8704,-0.8706,-0.8708,-0.8713,-0.874,-0.876,-0.8736,-0.8736,-0.8742,-0.878,-0.8791,-0.8795,-0.8836,-0.881,-0.8812,-0.8814,-0.8815,-0.8902,-0.8903,0,0,0,0,0,0,-0.8643,-0.8652,-0.8713,-0.8716,-0.8677,-0.871,-0.8716,-0.873,-0.876,-0.8764,-0.8742,-0.8742,-0.8787,-0.8792,-0.8797,-0.8833,-0.8813,-0.8815,-0.8817,-0.8901,-0.8902,-0.8903,0,0,0,0,0,0,-0.8641,-0.8649,-0.8711,-0.8684,-0.8692,-0.8712,-0.8728,-0.8731,-0.8742,-0.8765,-0.8768,-0.875,-0.8787,-0.8793,-0.8822,-0.8835,-0.8816,-0.8819,-0.89,-0.8902,-0.8903,-0.8905,0,0,0,0,0,0,-0.8639,-0.8648,-0.8659,-0.8684,-0.8693,-0.8735,-0.8729,-0.8733,-0.8747,-0.8747,-0.8773,-0.8776,-0.8787,-0.8819,-0.8825,-0.8838,-0.8821,-0.8899,-0.8901,-0.8902,-0.8904,-0.8906,-0.8908,0,0,0,0,0,-0.8636,-0.8658,-0.8659,-0.8667,-0.8707,-0.8736,-0.8741,-0.8753,-0.8747,-0.8759,-0.8773,-0.8776,-0.8832,-0.8822,-0.8829,-0.8843,-0.8899,-0.8901,-0.8902,-0.8903,-0.8906,-0.8908,0,0,0,0,0,0,-0.8634,-0.8661,-0.8663,-0.8694,-0.8713,-0.8737,-0.8752,-0.8755,-0.8776,-0.8775,-0.8789,-0.8795,-0.8823,-0.8836,-0.8824,-0.8872,-0.8865,-0.8868,-0.8863,-0.8866,-0.8868,-0.8864,-0.8823,0,0,0,0,0,-0.8637,-0.8657,-0.868,-0.8705,-0.8714,-0.8731,-0.8744,-0.8751,-0.8772,-0.878,-0.8796,-0.8816,-0.8838,-0.8853,-0.8874,-0.8905,-0.8912,-0.8919,-0.8921,-0.8922,-0.8925,-0.8943,-0.8946,-0.8909,-0.8909,-0.8909,0,0,-0.8643,-0.8661,-0.8673,-0.8705,-0.872,-0.8742,-0.8738,-0.8761,-0.8777,-0.8783,-0.8812,-0.8825,-0.8848,-0.8878,-0.8892,-0.8889,-0.8937,-0.8924,-0.8925,-0.8927,-0.8945,-0.8949,-0.8952,-0.891,-0.891,-0.891,0,0,-0.8666,-0.8681,-0.8703,-0.8719,-0.8742,-0.8753,-0.8759,-0.8783,-0.8792,-0.882,-0.8826,-0.8845,-0.8883,-0.8899,-0.8913,-0.8942,-0.8945,-0.8948,-0.8959,-0.8976,-0.8979,-0.8982,-0.8993,-0.8996,-0.8951,-0.8951,-0.8951,0,-0.8671,-0.8703,-0.8715,-0.8737,-0.8751,-0.8758,-0.878,-0.8795,-0.8824,-0.8834,-0.883,-0.8878,-0.8894,-0.8928,-0.8935,-0.8946,-0.8953,-0.8946,-0.8978,-0.8981,-0.8983,-0.8994,-0.8998,-0.8951,-0.8951,-0.8951,-0.8951,0,-0.8709,-0.8731,-0.8746,-0.8774,-0.879,-0.8813,-0.8828,-0.8842,-0.8848,-0.886,-0.8889,-0.8909,-0.8935,-0.8943,-0.8949,-0.8979,-0.8976,-0.8975,-0.8968,-0.8987,-0.8997,-0.9001,-0.8952,-0.8952,-0.8952,-0.8951,0,0,-0.8731,-0.8765,-0.8771,-0.8783,-0.881,-0.8827,-0.885,-0.8875,-0.8888,-0.8908,-0.8928,-0.896,-0.8959,-0.8974,-0.8982,-0.8997,-0.9019,-0.8994,-0.8994,-0.8998,-0.9054,-0.9055,-0.9059,-0.9021,-0.9022,-0.9023,-0.9052,0,-0.8757,-0.8799,-0.8809,-0.8845,-0.8866,-0.8872,-0.8892,-0.891,-0.8922,-0.8942,-0.8955,-0.8978,-0.8974,-0.8983,-0.8998,-0.9013,-0.903,-0.9011,-0.9041,-0.9041,-0.9035,-0.9064,-0.9066,-0.9092,-0.9056,-0.9056,-0.9057,0,-0.8793,-0.8814,-0.8851,-0.8875,-0.8884,-0.8902,-0.8926,-0.8944,-0.8966,-0.8973,-0.899,-0.8996,-0.9021,-0.9013,-0.9047,-0.9034,-0.9047,-0.9056,-0.9057,-0.9061,-0.9051,-0.9069,-0.9101,-0.9105,-0.9063,-0.9063,-0.9062,0,-0.8807,-0.8844,-0.8871,-0.8881,-0.891,-0.8922,-0.8935,-0.8955,-0.8969,-0.899,-0.9,-0.9024,-0.9037,-0.9055,-0.9068,-0.9061,-0.9102,-0.9095,-0.911,-0.9109,-0.9118,-0.9118,-0.9153,-0.9126,-0.9126,-0.9126,-0.9125,0,-0.8835,-0.8858,-0.8877,-0.8894,-0.8919,-0.8932,-0.8957,-0.897,-0.8988,-0.9007,-0.9014,-0.9033,-0.9048,-0.9069,-0.9079,-0.9107,-0.9112,-0.912,-0.9122,-0.9119,-0.9118,-0.9128,-0.9127,-0.9127,-0.9126,-0.9126,-0.9126,0,-0.8854,-0.8868,-0.8898,-0.8922,-0.8929,-0.8947,-0.8968,-0.8984,-0.8996,-0.9021,-0.9028,-0.9046,-0.9071,-0.9085,-0.9117,-0.9124,-0.9154,-0.9156,-0.9147,-0.9148,-0.9163,-0.9161,-0.9206,-0.9213,-0.918,-0.9181,-0.9181,0,-0.8872,-0.8889,-0.8915,-0.8929,-0.8941,-0.8963,-0.8977,-0.899,-0.9005,-0.9031,-0.9045,-0.907,-0.909,-0.913,-0.9146,-0.917,-0.9173,-0.9187,-0.9177,-0.9173,-0.9174,-0.9173,-0.9175,-0.9189,-0.9189,-0.9189,-0.9189,0,-0.8901,-0.8907,-0.8928,-0.8951,-0.8968,-0.8987,-0.9006,-0.9017,-0.9033,-0.905,-0.9075,-0.9091,-0.9123,-0.9148,-0.9174,-0.9187,-0.9191,-0.9192,-0.9197,-0.9195,-0.9189,-0.9193,-0.9152,-0.9192,-0.9191,-0.9191,-0.9191,-0.9191,-0.892,-0.8936,-0.8957,-0.898,-0.8996,-0.9013,-0.903,-0.9044,-0.9065,-0.9092,-0.9098,-0.9125,-0.9146,-0.9181,-0.9194,-0.9216,-0.9214,-0.922,-0.9222,-0.9224,-0.9225,-0.9185,-0.922,-0.922,-0.922,-0.922,-0.922,0,-0.895,-0.8964,-0.8985,-0.9011,-0.9029,-0.9031,-0.9053,-0.9068,-0.9091,-0.911,-0.913,-0.916,-0.9184,-0.9202,-0.9227,-0.9241,-0.9244,-0.9247,-0.9247,-0.925,-0.9225,-0.9218,-0.9245,-0.9245,-0.9245,-0.9245,-0.9245,-0.9245,-0.8968,-0.8995,-0.9004,-0.9039,-0.9053,-0.9078,-0.909,-0.9107,-0.9122,-0.9155,-0.9175,-0.9186,-0.9206,-0.9232,-0.9255,-0.926,-0.9269,-0.9272,-0.9278,-0.9254,-0.9251,-0.9249,-0.9243,-0.9274,-0.9274,-0.9301,-0.9301,-0.9301]},{"header":{"parameterUnit":"m.s-1","parameterCategory":1,"la1":30.2991,"la2":30.254,"lo1":-89.0895,"lo2":-89.0444,"dy":0.0017,"dx":0.0017,"nx":28,"ny":28,"refTime":"2024-12-19T03:00:00:Z","depth":0,"parameterNumber":3,"parameterNumberName":"V-component_of_WINDS"},"data":[0,0,0,0,0,0,0,0,0,0,0,0,0,0,0,0,0,0,0,0,0,0,0,0,0,0,0,0,0,0,0,0,0,0,0,0,0,0,0,0,0,0,0,0,0,0,0,0,0,0,0,0,0,0,0,0,0,0,-4.13,-4.1301,0,-4.1377,-4.1378,-4.1379,-4.1378,-4.1377,-4.1376,-4.1375,-4.145,-4.1453,-4.1456,0,0,0,0,0,0,0,0,0,0,0,0,0,-4.115,-4.1153,-4.13,-4.1301,-4.1302,-4.1377,-4.1378,-4.1379,-4.1378,-4.1377,-4.1376,-4.1374,-4.1449,-4.1453,-4.1456,0,0,0,0,0,0,0,0,0,0,0,0,0,-4.122,-4.1154,-4.13,-4.1311,-4.1312,-4.1377,-4.1378,-4.1379,-4.1378,-4.1377,-4.1375,-4.1374,-4.1448,-4.1452,-4.1457,-4.1514,0,0,-4.147,-4.1472,0,0,0,0,0,0,0,0,-4.1216,-4.1225,-4.1308,-4.131,-4.1312,-4.1366,-4.1353,-4.1424,-4.1379,-4.1353,-4.1375,-4.1373,-4.1423,-4.143,-4.1447,-4.1518,-4.1521,-4.1471,-4.1473,-4.1475,-4.1476,0,0,0,0,0,0,0,-4.1211,-4.1222,-4.133,-4.1309,-4.1312,-4.1311,-4.1319,-4.1366,-4.1396,-4.1355,-4.1355,-4.1365,-4.1424,-4.1443,-4.1449,-4.1522,-4.147,-4.1474,-4.1477,-4.1479,-4.1646,-4.1648,0,0,0,0,0,0,-4.1205,-4.1218,-4.1328,-4.1333,-4.1259,-4.1315,-4.1324,-4.135,-4.1395,-4.1401,-4.1366,-4.1364,-4.1436,-4.1444,-4.1452,-4.1524,-4.1475,-4.1479,-4.1482,-4.1644,-4.1647,-4.1649,0,0,0,0,0,0,-4.1201,-4.1214,-4.1325,-4.1276,-4.129,-4.1319,-4.1349,-4.1353,-4.1372,-4.1403,-4.1408,-4.138,-4.1435,-4.1445,-4.1499,-4.1526,-4.1481,-4.1485,-4.1642,-4.1645,-4.1648,-4.1667,0,0,0,0,0,0,-4.1197,-4.1213,-4.1236,-4.1276,-4.1292,-4.1372,-4.135,-4.1355,-4.138,-4.1378,-4.1418,-4.1423,-4.1435,-4.1493,-4.1504,-4.1532,-4.1489,-4.164,-4.1644,-4.1647,-4.1664,-4.167,-4.1676,0,0,0,0,0,-4.1192,-4.1237,-4.1237,-4.125,-4.1321,-4.1373,-4.1382,-4.1396,-4.1382,-4.1405,-4.1425,-4.1422,-4.1522,-4.1498,-4.1511,-4.154,-4.1638,-4.1643,-4.1646,-4.1662,-4.1669,-4.1675,0,0,0,0,0,0,-4.1196,-4.1242,-4.1243,-4.1302,-4.1334,-4.1373,-4.1402,-4.1403,-4.1439,-4.1436,-4.1451,-4.146,-4.1514,-4.1532,-4.1506,-4.16,-4.1578,-4.1585,-4.1586,-4.1593,-4.1598,-4.1593,-4.1492,0,0,0,0,0,-4.1205,-4.1244,-4.1282,-4.133,-4.1347,-4.1372,-4.1395,-4.1403,-4.1437,-4.145,-4.1474,-4.1506,-4.1545,-4.157,-4.1607,-4.1667,-4.1677,-4.1694,-4.1699,-4.1704,-4.1709,-4.1745,-4.1753,-4.1662,-4.1662,-4.1662,0,0,-4.1221,-4.1251,-4.1275,-4.1332,-4.1358,-4.1399,-4.1383,-4.1426,-4.1456,-4.1456,-4.1509,-4.1529,-4.1565,-4.1623,-4.165,-4.164,-4.1737,-4.1709,-4.1712,-4.1715,-4.175,-4.1758,-4.1766,-4.1665,-4.1664,-4.1664,0,0,-4.1273,-4.1299,-4.1344,-4.1371,-4.1411,-4.1428,-4.1439,-4.1479,-4.1492,-4.1546,-4.1548,-4.1584,-4.1649,-4.1676,-4.1698,-4.1764,-4.1762,-4.1775,-4.1804,-4.1839,-4.1846,-4.1852,-4.1877,-4.1886,-4.1781,-4.1781,-4.1781,0,-4.1288,-4.135,-4.1366,-4.1411,-4.1437,-4.144,-4.1486,-4.1511,-4.1561,-4.1578,-4.1567,-4.1652,-4.1676,-4.1742,-4.1758,-4.1775,-4.1789,-4.1771,-4.1844,-4.185,-4.1857,-4.188,-4.1889,-4.1782,-4.1782,-4.1782,-4.1782,0,-4.1368,-4.1412,-4.1443,-4.1494,-4.1523,-4.1567,-4.159,-4.1618,-4.1624,-4.1642,-4.1698,-4.1728,-4.1773,-4.1789,-4.1794,-4.1856,-4.1849,-4.1841,-4.1819,-4.1867,-4.1889,-4.1898,-4.1784,-4.1784,-4.1783,-4.1783,0,0,-4.1423,-4.1485,-4.1496,-4.152,-4.1566,-4.16,-4.1645,-4.169,-4.1715,-4.1749,-4.1788,-4.1845,-4.1839,-4.1864,-4.1873,-4.1903,-4.1955,-4.1891,-4.1892,-4.1903,-4.2027,-4.2034,-4.2044,-4.1954,-4.1956,-4.1958,-4.2024,0,-4.1481,-4.1563,-4.158,-4.1651,-4.1692,-4.1698,-4.1738,-4.177,-4.1789,-4.1826,-4.1846,-4.1887,-4.1874,-4.189,-4.192,-4.1942,-4.198,-4.1938,-4.1991,-4.1993,-4.1983,-4.2056,-4.2063,-4.2124,-4.2033,-4.2035,-4.2036,0,-4.1558,-4.1598,-4.1674,-4.1717,-4.1735,-4.1771,-4.1815,-4.1851,-4.1888,-4.19,-4.193,-4.1936,-4.1984,-4.1961,-4.2027,-4.1998,-4.2021,-4.2035,-4.2038,-4.2044,-4.2017,-4.2065,-4.2144,-4.2154,-4.205,-4.2048,-4.2047,0,-4.1593,-4.1665,-4.172,-4.1741,-4.1792,-4.1817,-4.184,-4.1876,-4.1903,-4.1942,-4.196,-4.2002,-4.2026,-4.2059,-4.2077,-4.2058,-4.2143,-4.2121,-4.2155,-4.2154,-4.2172,-4.2171,-4.2257,-4.2185,-4.2185,-4.2185,-4.2185,0,-4.1656,-4.1702,-4.1737,-4.1771,-4.1824,-4.1843,-4.1895,-4.1917,-4.195,-4.1988,-4.1995,-4.203,-4.2052,-4.2091,-4.2105,-4.2159,-4.2169,-4.218,-4.2184,-4.218,-4.2179,-4.2196,-4.2192,-4.2188,-4.2187,-4.2187,-4.2186,0,-4.1703,-4.1728,-4.1789,-4.1834,-4.1847,-4.1884,-4.1922,-4.1955,-4.1975,-4.2024,-4.2037,-4.2067,-4.2114,-4.2135,-4.2192,-4.2202,-4.2264,-4.2263,-4.2252,-4.2253,-4.2286,-4.2283,-4.2387,-4.2402,-4.2319,-4.232,-4.2321,0,-4.1742,-4.1778,-4.1828,-4.1856,-4.188,-4.1923,-4.1952,-4.1973,-4.2002,-4.2049,-4.2077,-4.2125,-4.2164,-4.2238,-4.2265,-4.2309,-4.2311,-4.2344,-4.2317,-4.2314,-4.2313,-4.2311,-4.2315,-4.2349,-4.235,-4.235,-4.2351,0,-4.1809,-4.182,-4.1862,-4.1909,-4.1944,-4.1982,-4.2018,-4.204,-4.2067,-4.21,-4.2149,-4.218,-4.2239,-4.2287,-4.2333,-4.2356,-4.2358,-4.2359,-4.237,-4.2367,-4.2359,-4.2366,-4.2266,-4.2357,-4.2356,-4.2356,-4.2355,-4.2355,-4.1854,-4.1888,-4.1929,-4.1976,-4.2007,-4.2042,-4.2077,-4.2102,-4.2144,-4.2196,-4.2205,-4.2258,-4.2296,-4.2359,-4.2384,-4.2425,-4.2417,-4.2432,-4.2435,-4.2439,-4.2442,-4.2353,-4.2433,-4.2433,-4.2433,-4.2433,-4.2433,0,-4.1922,-4.195,-4.1993,-4.2046,-4.2084,-4.2085,-4.2127,-4.2158,-4.2204,-4.2241,-4.228,-4.2338,-4.2384,-4.2416,-4.2464,-4.2491,-4.2493,-4.2503,-4.2501,-4.2507,-4.2445,-4.2432,-4.25,-4.25,-4.25,-4.25,-4.25,-4.25,-4.1962,-4.202,-4.2037,-4.2111,-4.2138,-4.2191,-4.2215,-4.2248,-4.2278,-4.2342,-4.2382,-4.2403,-4.2438,-4.2489,-4.2532,-4.254,-4.2557,-4.2567,-4.2575,-4.2518,-4.2511,-4.2504,-4.2492,-4.2571,-4.2571,-4.2633,-4.2634,-4.2634]}]]